Tracking 19176 objects as of 26-May-2018
HD Live streaming from Space Station
objects crossing your sky now

COSMOS 2251 DEB

Track COSMOS 2251 DEB now!
10-day predictions


NORAD ID: 34447
Int'l Code: 1993-036SQ
Perigee: 618.6 km
Apogee: 653.2 km
Inclination: 74.0 °
Period: 97.3 minutes
Semi major axis: 7006 km
RCS: 0.038 m2 (small)
Launch date: June 16, 1993
Source: Commonwealth of Independent States (former USSR) (CIS)
Launch site: PLESETSK MISSILE AND SPACE COMPLEX (PKMTR)

Note: This is SATELLITE DEBRIS
aabbcc
Your satellite tracking list
Your tracking list is empty




NASA's NSSDC Master Catalog

Two Line Element Set (TLE):
1 34447U 93036SQ  18145.51505851 +.00003212 +00000-0 +42490-3 0  9992
2 34447 074.0269 042.5262 0024716 131.4383 291.6235 14.80187636492182
Source of the keplerian elements: AFSPC